Location: Newark
(39.7092°N, 111.8314°W)
Time: 21:03:01
(UTC+00:00)

N. Korean satellite - Visible Passes

Search period start: 27 February 2020 00:00
Search period end: 08 March 2020 00:00
Orbit: 456 x 505 km, 97.2° (Epoch: 26 February)

Date Brightness Start Highest point End Pass type
(mag) Time Alt. Az. Time Alt. Az. Time Alt. Az.
27 Feb 10.3 12:04:59 10° E 12:05:18 10° E 12:05:36 10° E visible
27 Feb 6.9 13:35:22 10° N 13:38:56 47° WNW 13:42:27 10° SSW visible
28 Feb 6.8 13:09:44 10° NNE 13:13:26 77° E 13:17:05 10° S visible
29 Feb 8.5 12:44:28 10° NNE 12:47:51 34° E 12:51:10 10° SSE visible
01 Mar 9.8 12:19:45 10° NE 12:22:09 16° E 12:24:31 10° SE visible
02 Mar 6.6 13:26:28 10° N 13:30:07 62° WNW 13:33:42 10° SSW visible
03 Mar 7.3 13:00:57 10° NNE 13:04:35 57° E 13:08:08 10° S visible
04 Mar 9.0 12:35:49 10° NE 12:38:57 26° E 12:42:01 10° SSE visible
05 Mar 10.0 12:11:32 10° ENE 12:13:12 13° E 12:14:51 10° ESE visible
06 Mar 6.5 13:17:36 10° N 13:21:15 82° WNW 13:24:50 10° SSW visible
07 Mar 8.0 12:52:10 10° NNE 12:55:41 43° E 12:59:05 10° S visible
